Regional Weather Roundup
Issued by NWS Green Bay, WI

Home | Current Version | Previous Version | Graphics & Text | Print | Product List | Glossary Off
Versions: 1 2 3 4 5 6 7 8 9 10 11 12 13 14 15 16 17 18 19 20 21 22 23 24 25 26 27 28 29 30 31 32 33 34 35 36 37 38 39 40 41 42 43 44 45 46 47 48 49 50

000
ASUS43 KGRB 260010
RWRGRB

NORTH-CENTRAL AND NORTHEAST WISCONSIN REGIONAL WEATHER ROUNDUP
NATIONAL WEATHER SERVICE GREEN BAY WI
700 PM CDT SAT APR 25 2015

WIZ005-009-010>012-018-019-260100-
NORTH CENTRAL WISCONSIN

CITY           SKY/WX    TMP DP  RH WIND       PRES   REMARKS
IRONWOOD       CLEAR     43  25  49 N9        29.95R
MANITOWISH WTR CLEAR     49  15  25 NE9       29.91R
ARBOR VITAE    CLEAR     52  15  23 NE9       29.90R
EAGLE RIVER    CLEAR     51  12  20 NE13      29.89R
LAND O LAKES   CLEAR     49  18  30 NE10      29.92R
RHINELANDER    CLEAR     53  11  18 E8        29.89R
PHILLIPS       CLEAR     54  20  26 N13G18    29.87S
ANTIGO         CLEAR     50  20  30 E13       29.87S
TOMAHAWK       CLEAR     55  16  22 CALM      29.88R
MERRILL        CLEAR     55  16  21 E8        29.86S
$$

WIZ013-073-260100-
NORTHEAST WISCONSIN

CITY           SKY/WX    TMP DP  RH WIND       PRES   REMARKS
IRON MOUNTAIN  CLEAR     49  20  31 NE9       29.91R
MARINETTE      CLEAR     46  21  36 E8        29.92S
OCONTO         CLEAR     46  19  34 NE7       29.91S
$$

WIZ017-030-035>037-045-260100-
CENTRAL WISCONSIN

CITY           SKY/WX    TMP DP  RH WIND       PRES   REMARKS
MEDFORD        CLEAR     55  22  27 NE3       29.86R
WAUSAU         CLEAR     54  12  18 E8        29.85R
MOSINEE        CLEAR     52  16  24 E10       29.87R
MARSHFIELD     PTCLDY    56  18  22 E8        29.85R
WISC RAPIDS    PTCLDY    53  12  19 SE12      29.88R
STEVENS POINT  PTCLDY    49  17  28 E12       29.88R
WAUPACA        PTCLDY    50   8  18 NE8       29.89S
SHAWANO        CLEAR     48  13  24 E9        29.91S
CLINTONVILLE   PTCLDY    48  12  23 E9        29.89S
$$

WIZ038-039-048-051-260100-
FOX VALLEY

CITY           SKY/WX    TMP DP  RH WIND       PRES   REMARKS
NWS GREEN BAY  PTCLDY    46  15  28 NE14      29.90S
APPLETON       PTCLDY    46   7  19 NE9       29.88S
OSHKOSH        MOCLDY    47  25  42 NE16      29.88R
FOND DU LAC    PTCLDY    49  14  24 NE12      29.87R
$$

WIZ022-050-052-260100-
EAST CENTRAL WISCONSIN

CITY           SKY/WX    TMP DP  RH WIND       PRES   REMARKS
STURGEON BAY   CLEAR     46  19  34 NE10      29.92F
MANITOWOC      MOCLDY    43  22  43 NE13G22   29.88S
SHEBOYGAN      MOCLDY    43  17  35 NE16      29.87R
$$

LMZ563-521-522-541>543-260100-
LAKESHORE

STATION/POSITION TIME  TEMP    WIND        PRES    VSBY  WAVE
                       AIR SEA DIR/SP/G                  HT/PER
                 (UTC) (F)     (DEG/KT/KT) (MB)    (MI)  (FT/S)
SHEBOYGAN LKSHOR 0000   41      10/ 23/ 26 1012.2S
KEWAUNEE LKSHORE 0000   43      20/ 13/ 17 1011.4F
NORTHPORT PIER   0000   44      60/ 10/ 12 1012.9S
CHAMBERS ISLAND  0000   42     360/  4/  8 1013.5S
MENOMINEE LKSHOR 0000   41     360/  5/  6 1013.8F
$$


USA.gov is the U.S. government's official web portal to all federal, state and local government web resources and services.